Location: N�rnberg
(49.4489°N, 11.0797°E)
Time: 15:59:38
(UTC+01:00)

Envisat - Visible Passes

Search period start: 22 February 2018 00:00
Search period end: 04 March 2018 00:00
Orbit: 764 x 766 km, 98.2° (Epoch: 22 February)

Date Brightness Start Highest point End Pass type
(mag) Time Alt. Az. Time Alt. Az. Time Alt. Az.
22 Feb 2.9 19:18:42 10° SSE 19:23:44 68° ENE 19:28:48 10° N visible
22 Feb 5.5 20:59:44 10° SW 21:03:16 19° W 21:06:49 10° NW visible
23 Feb 3.6 18:42:37 10° SE 18:47:11 35° ENE 18:51:47 10° N visible
23 Feb 4.4 20:21:30 10° SSW 20:26:11 37° W 20:30:54 10° NNW visible
24 Feb 3.1 19:44:14 10° S 19:49:19 75° WSW 19:54:26 10° NNW visible
24 Feb 6.0 21:27:48 10° W 21:29:13 11° W 21:30:39 10° WNW visible
25 Feb 3.1 19:07:41 10° SSE 19:12:38 56° ENE 19:17:36 10° N visible
25 Feb 5.2 20:48:01 10° SW 20:52:00 23° W 20:56:01 10° NW visible
26 Feb 3.8 18:31:48 10° ESE 18:36:08 29° ENE 18:40:29 10° N visible
26 Feb 4.0 20:10:07 10° S 20:14:59 45° W 20:19:53 10° NNW visible
27 Feb 2.9 19:33:04 10° SSE 19:38:10 89° E 19:43:17 10° NNW visible
27 Feb 5.8 21:15:19 10° WSW 21:17:55 14° W 21:20:33 10° NW visible
28 Feb 3.3 18:56:43 10° SE 19:01:32 46° ENE 19:06:23 10° N visible
28 Feb 4.9 20:36:25 10° SSW 20:40:46 28° W 20:45:07 10° NW visible
01 Mar 3.6 19:58:49 10° S 20:03:48 56° W 20:08:49 10° NNW visible
02 Mar 2.9 19:21:59 10° SSE 19:27:02 74° ENE 19:32:08 10° N visible
02 Mar 5.6 21:03:18 10° SW 21:06:38 17° W 21:09:57 10° NW visible
03 Mar 3.5 18:45:49 10° SE 18:50:28 38° ENE 18:55:09 10° N visible
03 Mar 4.6 20:24:56 10° SSW 20:29:32 34° W 20:34:10 10° NNW visible
